FW3015 Weather Reports


Display with metric or nautical units.
time (UTC)temp
F
wind
direction
speed
MPH
gust
MPH
rain 1hr
in
rain 24hr
in
rain mn
in
humidity
%
barometer
mb
20220118142500 24 329 16.0 30.0 0.00 0.35 0.00 70 993.8
20220118142001 24 327 17.0 30.0 0.00 0.35 0.00 71 993.9
20220118141500 24 325 19.0 28.0 0.00 0.35 0.00 70 993.7
20220118141001 24 326 20.0 32.0 0.00 0.35 0.00 70 993.5
20220118140501 24 330 20.0 32.0 0.00 0.35 0.00 70 993.3
20220118140001 24 331 21.0 32.0 0.00 0.35 0.00 70 993.1
20220118135501 24 326 19.0 32.0 0.00 0.35 0.00 70 993.3
20220118135001 24 321 17.0 29.0 0.00 0.35 0.00 70 993.0
20220118134501 24 325 17.0 29.0 0.00 0.36 0.00 69 992.8
20220118134001 25 333 18.0 33.0 0.00 0.36 0.00 69 992.8
20220118133501 25 333 18.0 33.0 0.00 0.36 0.00 69 992.8
20220118133001 25 334 19.0 31.0 0.00 0.36 0.00 71 992.8
20220118132501 26 336 20.0 34.0 0.00 0.36 0.00 71 992.7
20220118132001 26 331 17.0 34.0 0.00 0.36 0.00 72 992.4
20220118131501 26 322 17.0 31.0 0.00 0.36 0.00 71 992.3
20220118131001 26 324 19.0 31.0 0.00 0.36 0.00 68 992.0
20220118130501 27 333 22.0 35.0 0.00 0.36 0.00 70 991.8
20220118130001 27 337 20.0 35.0 0.00 0.36 0.00 72 991.5
20220118125501 28 329 15.0 28.0 0.00 0.36 0.00 73 991.6
20220118125001 28 322 15.0 25.0 0.00 0.36 0.00 72 991.5
20220118124501 28 320 15.0 25.0 0.00 0.36 0.00 72 991.4
20220118124001 28 319 15.0 25.0 0.00 0.36 0.00 72 991.1
20220118123501 28 321 14.0 25.0 0.00 0.36 0.00 72 991.0
20220118123001 29 322 14.0 25.0 0.00 0.36 0.00 73 990.8
20220118122501 29 321 14.0 24.0 0.00 0.36 0.00 73 990.7
20220118122001 29 318 12.0 22.0 0.00 0.36 0.00 74 990.6
20220118121501 29 314 11.0 23.0 0.00 0.36 0.00 75 990.4
20220118121001 30 314 12.0 23.0 0.00 0.36 0.00 75 990.3
20220118120501 30 316 12.0 18.0 0.00 0.36 0.00 75 990.2
20220118120001 30 324 11.0 19.0 0.00 0.36 0.00 75 990.0
20220118115501 30 326 11.0 20.0 0.00 0.36 0.00 76 989.9
20220118115001 30 318 12.0 23.0 0.00 0.36 0.00 76 989.7
20220118114501 30 315 13.0 23.0 0.00 0.36 0.00 76 989.6
20220118114001 30 314 12.0 21.0 0.00 0.36 0.00 76 989.5
20220118113501 31 322 13.0 21.0 0.00 0.36 0.00 76 989.3
20220118113001 31 322 14.0 21.0 0.00 0.36 0.00 76 989.2
20220118112501 31 321 15.0 23.0 0.00 0.36 0.00 76 989.0
20220118112001 31 323 14.0 23.0 0.00 0.36 0.00 76 988.8
20220118111501 31 320 14.0 23.0 0.00 0.36 0.00 77 988.7
20220118111001 31 319 14.0 23.0 0.00 0.36 0.00 77 988.7
20220118110501 31 322 13.0 25.0 0.00 0.36 0.00 78 988.5
20220118110001 31 324 13.0 25.0 0.00 0.36 0.00 79 988.3
20220118105501 31 316 12.0 20.0 0.00 0.36 0.00 80 988.1
20220118105001 32 315 10.0 20.0 0.00 0.36 0.00 83 988.1
20220118104501 32 323 9.0 18.0 0.00 0.36 0.00 86 988.0
20220118104001 32 333 9.0 12.0 0.00 0.36 0.00 87 987.8
20220118103501 32 340 10.0 14.0 0.00 0.36 0.00 88 987.7
20220118103002 32 344 11.0 15.0 0.00 0.36 0.00 88 987.5
20220118102501 32 346 11.0 16.0 0.00 0.36 0.00 88 987.3
20220118102002 32 342 11.0 16.0 0.00 0.36 0.00 89 987.1
20220118101501 33 337 12.0 18.0 0.00 0.36 0.00 89 987.1
20220118101001 33 339 12.0 18.0 0.00 0.36 0.00 90 986.7
20220118100501 33 341 12.0 17.0 0.00 0.36 0.00 90 986.6
20220118100001 34 335 12.0 17.0 0.00 0.36 0.00 89 986.5
20220118095501 34 329 11.0 17.0 0.00 0.36 0.00 88 986.4
20220118095001 34 330 11.0 18.0 0.00 0.36 0.00 88 986.2
20220118094501 34 334 13.0 20.0 0.00 0.36 0.00 89 986.0
20220118094001 35 330 13.0 22.0 0.00 0.36 0.00 89 985.8
20220118093502 35 325 12.0 28.0 0.00 0.36 0.00 90 985.6
20220118093001 35 321 12.0 28.0 0.00 0.36 0.00 91 985.5
20220118092501 35 323 11.0 21.0 0.00 0.36 0.00 91 985.3
20220118092001 36 322 10.0 18.0 0.00 0.36 0.00 92 985.3
20220118091502 36 312 10.0 19.0 0.00 0.36 0.00 93 985.2
20220118091002 36 309 8.0 19.0 0.00 0.36 0.00 94 985.1
20220118090501 36 309 7.0 14.0 0.00 0.36 0.00 94 985.0
20220118090002 36 303 5.0 11.0 0.00 0.36 0.00 94 984.8
20220118085501 36 301 4.0 9.0 0.00 0.36 0.00 95 984.8
20220118085001 36 301 3.0 10.0 0.00 0.36 0.00 95 984.8
20220118084501 36 290 1.0 10.0 0.00 0.36 0.00 95 984.7
20220118084002 36 279 1.0 3.0 0.00 0.36 0.00 95 984.6
20220118083502 36 279 0.0 3.0 0.00 0.36 0.00 95 984.6
20220118083002 36 279 0.0 5.0 0.00 0.36 0.00 95 984.4
20220118082502 36 272 0.0 5.0 0.00 0.36 0.00 95 984.5
20220118082002 36 256 1.0 7.0 0.00 0.36 0.00 95 984.4
20220118081501 36 269 1.0 7.0 0.00 0.36 0.00 95 984.4
20220118081002 36 269 1.0 5.0 0.00 0.36 0.00 96 984.4
20220118080502 36 260 1.0 5.0 0.00 0.36 0.00 96 984.3
20220118080002 35 261 1.0 7.0 0.00 0.36 0.00 96 984.4
20220118075502 35 255 1.0 7.0 0.00 0.36 0.00 96 984.3
20220118075002 35 208 0.0 5.0 0.00 0.36 0.00 96 984.4
20220118074502 35 203 1.0 6.0 0.00 0.36 0.00 96 984.4
20220118074002 35 195 1.0 8.0 0.00 0.36 0.00 96 984.3
20220118073502 35 178 1.0 8.0 0.00 0.36 0.00 96 984.2
20220118073002 35 172 2.0 6.0 0.00 0.36 0.00 95 984.1
20220118072502 34 171 3.0 7.0 0.00 0.36 0.00 95 984.1
20220118072002 34 177 3.0 7.0 0.00 0.36 0.00 95 984.1
20220118071502 34 183 2.0 7.0 0.00 0.36 0.00 95 984.0
20220118071002 34 186 1.0 5.0 0.00 0.36 0.00 95 984.0
20220118070502 34 189 1.0 5.0 0.00 0.36 0.00 94 984.0
20220118070002 34 200 0.0 2.0 0.00 0.36 0.00 94 984.0
20220118065502 34 200 0.0 2.0 0.00 0.36 0.00 94 984.0
20220118065002 34 0 0.0 0.0 0.00 0.36 0.00 94 984.0
20220118064502 34 200 0.0 2.0 0.00 0.36 0.00 94 984.0
20220118064002 34 200 0.0 4.0 0.00 0.36 0.00 94 983.8
20220118063502 34 200 0.0 4.0 0.00 0.36 0.00 94 983.9
20220118063002 35 185 1.0 5.0 0.00 0.36 0.00 93 983.9
20220118062502 35 176 0.0 5.0 0.00 0.36 0.00 93 983.9
20220118062002 35 172 0.0 2.0 0.00 0.36 0.00 93 983.9
20220118061502 35 172 0.0 2.0 0.00 0.36 0.00 93 984.0
20220118061002 36 0 0.0 0.0 0.00 0.36 0.00 93 983.9
20220118060502 36 0 0.0 0.0 0.00 0.36 0.00 94 983.8
20220118060002 36 0 0.0 0.0 0.00 0.36 0.00 94 983.7
20220118055502 36 172 0.0 1.0 0.00 0.36 0.00 94 983.7
20220118055002 37 172 0.0 3.0 0.00 0.36 0.00 94 983.7
20220118054502 37 172 0.0 3.0 0.00 0.36 0.00 94 983.8
20220118054002 37 172 0.0 4.0 0.00 0.36 0.00 94 983.8
20220118053502 37 172 0.0 4.0 0.01 0.36 0.00 94 983.8
20220118053002 37 171 0.0 3.0 0.01 0.36 0.00 94 983.7
20220118052502 37 170 1.0 6.0 0.01 0.36 0.00 94 983.6
20220118052002 37 169 2.0 6.0 0.01 0.36 0.00 94 983.6
20220118051503 37 166 2.0 6.0 0.01 0.36 0.00 94 983.5
20220118051003 37 161 2.0 5.0 0.01 0.36 0.00 94 983.5
20220118050502 37 159 2.0 5.0 0.01 0.36 0.00 94 983.5
20220118050003 37 162 1.0 5.0 0.01 0.36 0.00 94 983.6
20220118045502 38 165 1.0 5.0 0.01 0.36 1.00 93 983.7
20220118045002 38 169 1.0 5.0 0.01 0.36 1.00 93 983.7
20220118044503 38 179 1.0 5.0 0.01 0.36 1.00 93 983.8
20220118044002 38 193 1.0 6.0 0.01 0.36 1.00 93 983.8
20220118043502 38 189 1.0 6.0 0.00 0.35 0.99 92 983.8
20220118043002 38 173 1.0 6.0 0.00 0.35 0.99 92 983.8
20220118042502 38 172 1.0 6.0 0.00 0.35 0.99 92 983.8
20220118042002 38 171 1.0 4.0 0.00 0.35 0.99 92 983.8
20220118041502 38 170 2.0 6.0 0.00 0.35 0.99 92 983.8
20220118041002 38 169 2.0 6.0 0.00 0.35 0.99 92 983.9
20220118040502 38 176 2.0 5.0 0.00 0.35 0.99 92 983.9
20220118040002 38 200 2.0 7.0 0.00 0.35 0.99 92 983.8
20220118035502 38 218 2.0 7.0 0.00 0.35 0.99 92 983.8
20220118035002 38 202 2.0 7.0 0.00 0.35 0.99 92 983.9
20220118034503 38 191 4.0 10.0 0.00 0.35 0.99 92 983.8
20220118034002 38 189 4.0 10.0 0.00 0.35 0.99 92 983.8
20220118033502 38 192 4.0 10.0 0.00 0.35 0.99 92 983.7
20220118033003 38 190 4.0 9.0 0.00 0.35 0.99 92 983.9
20220118032502 38 188 3.0 9.0 0.01 0.35 0.99 92 983.9
20220118032002 38 192 3.0 11.0 0.01 0.35 0.99 92 983.9
20220118031503 39 196 3.0 11.0 0.01 0.35 0.99 92 984.0
20220118031002 39 195 4.0 10.0 0.01 0.35 0.99 92 984.0
20220118030502 39 191 4.0 10.0 0.01 0.35 0.99 92 984.0
20220118030002 39 195 4.0 10.0 0.01 0.35 0.99 92 984.0
20220118025503 39 204 5.0 13.0 0.01 0.35 0.99 92 984.0
20220118025003 39 206 5.0 13.0 0.01 0.35 0.99 92 984.0
20220118024503 39 200 5.0 13.0 0.01 0.35 0.99 92 984.0
20220118024002 39 196 5.0 11.0 0.01 0.35 0.99 91 984.0
20220118023503 39 195 6.0 12.0 0.01 0.35 0.99 91 983.9
20220118023002 39 194 5.0 12.0 0.01 0.35 0.99 92 984.0
20220118022503 39 195 3.0 8.0 0.00 0.34 0.98 92 984.0
20220118022003 39 194 2.0 8.0 0.00 0.34 0.98 92 983.9
20220118021504 40 191 2.0 8.0 0.00 0.34 0.98 92 983.8
20220118021003 40 191 2.0 8.0 0.00 0.34 0.98 92 983.8
20220118020503 40 207 3.0 9.0 0.00 0.34 0.98 92 983.9
20220118020003 40 211 2.0 10.0 0.00 0.34 0.98 92 983.9
20220118015503 40 199 2.0 10.0 0.00 0.34 0.98 91 983.8
20220118015003 40 203 3.0 9.0 0.01 0.34 0.98 91 983.8
20220118014503 40 198 5.0 12.0 0.01 0.34 0.98 91 983.9
20220118014003 40 194 5.0 12.0 0.01 0.34 0.98 91 983.9
20220118013503 40 188 5.0 13.0 0.01 0.34 0.98 91 983.9
20220118013003 40 182 5.0 13.0 0.01 0.34 0.98 91 984.1
20220118012503 40 190 7.0 20.0 0.01 0.34 0.98 92 984.1
20220118012003 40 195 8.0 24.0 0.01 0.34 0.98 92 984.0
20220118011503 40 190 6.0 24.0 0.02 0.34 0.98 92 984.3
20220118011003 40 183 4.0 12.0 0.02 0.34 0.98 92 984.1
20220118010503 40 178 4.0 13.0 0.02 0.34 0.98 92 983.9
20220118010003 40 183 6.0 16.0 0.02 0.34 0.98 92 984.0
20220118005503 41 188 6.0 16.0 0.02 0.34 0.98 92 984.0
20220118005003 41 181 6.0 17.0 0.01 0.33 0.97 91 984.1
20220118004503 41 180 6.0 17.0 0.01 0.33 0.97 91 984.0
20220118004003 41 185 7.0 15.0 0.01 0.33 0.97 91 983.9
20220118003503 41 182 7.0 16.0 0.01 0.33 0.97 90 983.9
20220118003003 41 180 7.0 21.0 0.01 0.33 0.97 90 984.1
20220118002503 41 184 7.0 21.0 0.01 0.33 0.97 90 984.1
20220118002003 42 182 6.0 20.0 0.01 0.33 0.97 89 984.1
20220118001503 42 184 5.0 13.0 0.00 0.32 0.96 89 984.2
20220118001003 42 190 5.0 12.0 0.00 0.32 0.96 88 984.1
20220118000503 42 190 4.0 13.0 0.00 0.32 0.96 88 984.1
20220118000003 42 189 4.0 13.0 0.00 0.32 0.96 88 984.0
20220117235504 42 180 5.0 10.0 0.00 0.32 0.96 88 984.1
20220117235003 42 178 5.0 11.0 0.00 0.32 0.96 88 984.0
20220117234503 43 179 6.0 16.0 0.00 0.32 0.96 88 984.0
20220117234004 43 182 6.0 16.0 0.00 0.32 0.96 88 983.9
20220117233503 43 184 5.0 13.0 0.00 0.32 0.96 88 984.0
20220117233003 43 182 4.0 12.0 0.00 0.32 0.96 88 984.0
20220117232503 43 189 5.0 13.0 0.00 0.32 0.96 88 984.1
20220117232003 43 188 5.0 13.0 0.00 0.32 0.96 88 984.0
20220117231504 43 190 6.0 15.0 0.00 0.32 0.96 88 984.0
20220117230959 43 190 6.0 15.0 0.00 0.32 0.96 89 984.0
20220117230459 43 180 4.0 12.0 0.00 0.32 0.96 89 984.0
20220117225959 43 180 4.0 12.0 0.00 0.32 0.96 89 984.1
20220117225459 43 186 7.0 16.0 0.00 0.32 0.96 88 984.0
20220117224959 43 190 6.0 16.0 0.00 0.32 0.96 89 983.9
20220117224459 43 183 6.0 15.0 0.00 0.32 0.96 89 983.9
20220117223959 43 180 6.0 19.0 0.00 0.32 0.96 89 983.9
20220117223459 43 189 6.0 19.0 0.00 0.32 0.96 89 983.7
20220117222959 43 194 5.0 18.0 0.00 0.32 0.96 88 983.8
20220117222459 43 193 6.0 16.0 0.00 0.32 0.96 88 983.8
20220117221959 43 186 6.0 16.0 0.00 0.32 0.96 87 983.7
20220117221459 43 184 6.0 16.0 0.00 0.32 0.96 87 983.7
20220117220959 43 186 8.0 21.0 0.00 0.32 0.96 87 983.6
20220117220459 43 185 9.0 22.0 0.00 0.32 0.96 88 983.5
20220117215959 44 187 9.0 22.0 0.00 0.32 0.96 88 983.7
20220117215459 44 188 8.0 19.0 0.00 0.32 0.96 89 984.0
20220117214959 44 185 7.0 19.0 0.00 0.32 0.96 90 984.0
20220117214459 44 184 7.0 17.0 0.00 0.32 0.96 92 983.8
20220117213959 44 186 8.0 22.0 0.00 0.32 0.96 94 983.7
20220117213459 44 187 8.0 22.0 0.00 0.32 0.96 95 983.6
20220117212959 45 184 6.0 18.0 0.00 0.32 0.96 96 983.5
20220117212459 45 183 5.0 15.0 0.00 0.32 0.96 97 983.4
20220117212000 45 184 6.0 15.0 0.00 0.32 0.96 97 983.3
20220117211459 45 181 6.0 14.0 0.01 0.32 0.96 97 983.1
20220117210959 45 181 7.0 16.0 0.01 0.32 0.96 97 983.1
20220117210459 45 178 8.0 16.0 0.01 0.32 0.96 98 983.2
20220117205959 44 173 6.0 15.0 0.01 0.32 0.96 97 983.3
20220117205459 43 165 5.0 14.0 0.01 0.32 0.96 96 983.2
20220117204959 43 155 7.0 19.0 0.01 0.32 0.96 96 983.1
20220117204459 43 158 9.0 19.0 0.01 0.32 0.96 96 983.1
20220117203959 44 169 9.0 20.0 0.01 0.32 0.96 96 983.2
20220117203459 44 168 9.0 23.0 0.01 0.32 0.96 96 983.3
20220117202959 44 159 11.0 32.0 0.01 0.32 0.96 96 983.4
20220117202459 44 151 12.0 34.0 0.01 0.32 0.96 96 983.4
20220117201959 44 147 13.0 34.0 0.01 0.32 0.96 96 983.7
20220117201459 44 144 14.0 32.0 0.00 0.31 0.95 96 983.7
20220117200959 44 143 14.0 30.0 0.00 0.31 0.95 96 984.0
20220117200459 44 153 12.0 28.0 0.00 0.31 0.95 96 983.9
20220117195959 43 152 13.0 28.0 0.00 0.31 0.95 95 984.0
20220117195459 44 155 14.0 31.0 0.00 0.31 0.95 96 983.9
20220117195000 43 172 15.0 31.0 0.00 0.31 0.95 95 984.2
20220117194459 43 161 18.0 36.0 0.00 0.31 0.95 95 984.5
20220117194000 43 149 18.0 36.0 0.00 0.31 0.95 95 984.0
20220117193459 43 151 18.0 39.0 0.00 0.31 0.95 95 984.1
20220117193000 43 149 17.0 39.0 0.00 0.31 0.95 95 984.1
20220117192459 43 147 18.0 39.0 0.00 0.31 0.95 96 984.2
20220117191959 43 147 18.0 39.0 0.02 0.31 0.95 96 984.2
20220117191500 43 138 18.0 39.0 0.05 0.31 0.95 96 984.1
20220117191000 43 133 20.0 46.0 0.08 0.31 0.95 96 984.2
20220117190459 43 136 21.0 46.0 0.10 0.31 0.95 97 984.5
20220117190000 42 143 18.0 42.0 0.13 0.31 0.95 97 985.0
20220117185000 42 124 17.0 41.0 0.26 0.31 0.95 97 985.4
20220117184500 42 124 16.0 33.0 0.30 0.31 0.95 97 985.1
20220117184000 42 123 14.0 33.0 0.30 0.31 0.95 97 985.8
20220117183500 41 123 11.0 24.0 0.30 0.31 0.95 97 985.8
20220117183000 41 115 10.0 23.0 0.30 0.31 0.95 97 986.1
20220117182500 40 107 12.0 29.0 0.30 0.31 0.95 97 986.1
20220117182000 40 106 13.0 30.0 0.28 0.29 0.93 97 986.4
20220117181500 40 106 12.0 30.0 0.25 0.26 0.90 97 986.6
20220117181000 40 103 10.0 26.0 0.22 0.23 0.87 97 986.6
20220117180500 40 100 11.0 26.0 0.20 0.21 0.85 97 986.4
20220117180000 39 103 12.0 28.0 0.17 0.18 0.82 97 987.4
20220117175500 39 104 12.0 28.0 0.07 0.08 0.08 97 987.9
20220117175000 39 103 12.0 27.0 0.04 0.05 0.05 97 988.1
20220117174500 39 108 11.0 24.0 0.00 0.01 0.01 97 988.3
20220117174000 39 110 11.0 24.0 0.00 0.01 0.01 97 988.8
20220117173500 38 104 12.0 25.0 0.00 0.01 0.01 97 989.1
20220117173000 38 98 12.0 30.0 0.00 0.01 0.01 97 989.5
20220117172500 38 103 10.0 30.0 0.00 0.01 0.01 97 989.9
20220117172000 38 109 10.0 34.0 0.00 0.01 0.01 97 990.4
20220117171500 38 102 12.0 34.0 0.00 0.01 0.01 97 990.3
20220117171000 37 97 13.0 33.0 0.00 0.01 0.01 97 990.6
20220117170500 37 94 13.0 32.0 0.00 0.01 0.01 97 991.2
20220117170000 36 89 12.0 27.0 0.00 0.01 0.01 96 991.7
20220117165500 36 91 13.0 27.0 0.00 0.01 0.01 96 992.2
20220117165000 36 91 11.0 25.0 0.00 0.01 0.01 96 993.0
20220117164500 35 84 12.0 26.0 0.00 0.01 0.01 96 993.4
20220117164000 35 82 12.0 26.0 0.00 0.01 0.01 96 994.0
20220117163500 35 84 12.0 25.0 0.00 0.01 0.01 96 993.8
20220117163000 34 85 12.0 23.0 0.00 0.01 0.01 96 993.9
20220117162500 34 80 12.0 22.0 0.00 0.01 0.01 96 994.3
20220117162000 34 75 13.0 29.0 0.00 0.01 0.01 96 994.4
20220117161500 34 75 13.0 29.0 0.00 0.01 0.01 96 994.8
20220117161000 34 76 10.0 28.0 0.00 0.01 0.01 96 995.5
20220117160500 34 74 9.0 28.0 0.00 0.01 0.01 96 996.2
20220117160000 34 71 9.0 21.0 0.00 0.01 0.01 96 996.5
20220117155500 34 64 10.0 25.0 0.00 0.01 0.01 96 997.0
20220117155000 34 60 10.0 25.0 0.00 0.01 0.01 96 997.4
20220117154500 34 64 10.0 24.0 0.00 0.01 0.01 96 998.0
20220117154000 34 70 10.0 24.0 0.00 0.01 0.01 96 998.5
20220117153500 34 75 10.0 24.0 0.00 0.01 0.01 96 999.5
20220117153001 34 77 10.0 23.0 0.00 0.01 0.01 96 999.7
20220117152501 34 77 9.0 23.0 0.00 0.01 0.01 96 1000.2
20220117152000 34 78 9.0 21.0 0.00 0.01 0.01 96 1000.6
20220117151500 34 81 9.0 20.0 0.00 0.01 0.01 96 1001.0
20220117151000 34 85 9.0 21.0 0.00 0.01 0.01 96 1001.6
20220117150501 34 86 10.0 23.0 0.00 0.01 0.01 95 1002.1
20220117150000 34 79 10.0 23.0 0.00 0.01 0.01 95 1002.2
20220117145500 34 73 10.0 23.0 0.00 0.01 0.01 95 1002.3
20220117145000 34 74 10.0 22.0 0.00 0.01 0.01 95 1002.5
20220117144500 34 73 10.0 22.0 0.01 0.01 0.01 95 1003.0
20220117144000 34 72 9.0 19.0 0.01 0.01 0.01 95 1003.4
20220117143500 34 80 8.0 18.0 0.01 0.01 0.01 95 1003.9
20220117143002 34 78 10.0 25.0 0.01 0.01 0.01 95 1004.3